SCP
0 0 0 0 0 0 0 0 0 0 0 0 0 0 0 0 0 0 0 0 0 0 0 0 0 0 0 0 0 0 0 0 0 0 0 0 0 1 1 0 0 0 0 0
0 0 0 0 0 0 0 0 0 0 0 0 0 0 0 0 0 0 0 0 0 0 0 0 0 0 0 0 0 0 0 0 0 0 0 0 0 1 0 0 0 0 0 0
0 0 0 0 0 0 0 0 0 0 0 0 0 0 0 0 0 0 0 0 0 0 0 0 0 0 0 0 0 0 0 0 0 0 0 0 1 1 0 0 0 0 0 0
0 0 0 0 0 0 0 0 0 0 0 0 0 0 0 0 0 0 0 0 0 0 0 0 0 0 0 0 0 0 0 0 0 0 0 0 0 0 0 0 0 0 0 0
0 0 0 0 0 0 0 0 0 0 0 0 0 0 0 0 0 0 0 0 0 0 0 0 0 0 0 0 0 0 0 0 0 0 0 0 0 0 0 0 0 0 0 0
0 0 0 0 0 0 0 0 0 0 0 0 0 0 0 0 0 0 0 0 0 0 0 0 0 0 0 0 0 0 0 0 0 0 0 0 0 0 0 0 0 0 0 0
0 0 0 0 0 0 0 0 0 0 0 0 0 0 0 0 0 0 0 0 0 0 0 0 0 0 0 0 0 0 0 0 0 0 0 0 0 0 0 0 0 0 0 0
0 0 0 0 0 0 0 0 0 0 0 0 0 0 0 0 0 0 0 0 0 0 0 0 0 0 0 0 0 0 0 0 0 0 0 0 0 0 0 0 0 0 0 0
0 0 0 0 0 0 0 0 0 0 0 0 0 0 0 0 0 0 0 0 0 0 0 0 0 0 0 0 0 0 0 0 0 0 0 0 0 0 0 0 0 0 0 0
0 0 0 0 0 0 0 0 0 0 0 0 0 0 0 0 0 0 0 0 0 0 0 0 0 0 0 0 0 0 0 0 0 0 0 0 0 0 0 0 0 0 0 0
0 0 0 0 0 0 0 0 0 0 0 0 0 0 0 0 0 0 0 0 0 0 0 0 0 0 0 0 0 0 0 0 0 0 0 0 0 0 0 0 0 0 0 0
0 0 0 0 0 0 0 0 0 0 0 0 0 0 0 0 0 0 0 0 0 0 0 0 0 0 0 0 0 0 0 0 0 0 0 0 0 0 0 0 0 0 0 0
0 0 0 0 0 0 0 0 0 0 0 0 0 0 0 0 0 0 0 0 0 0 0 0 0 0 0 0 0 0 0 0 0 0 0 0 0 0 0 0 0 0 0 0
0 0 0 0 0 0 0 0 0 0 0 0 0 0 0 0 0 0 0 0 0 0 0 0 0 0 0 0 0 0 0 0 0 0 0 0 0 0 0 0 0 0 0 0
0 0 0 0 0 0 0 0 0 0 0 0 0 0 0 0 0 0 0 0 0 0 0 0 0 0 0 0 0 0 0 0 0 0 0 0 0 0 0 0 0 0 0 0
0 0 0 0 0 0 0 0 0 0 0 0 0 0 0 0 0 0 0 0 0 0 0 0 0 0 0 0 0 0 0 0 0 0 0 0 0 0 0 0 0 0 0 0
0 0 0 0 0 0 0 0 0 0 0 0 0 0 0 0 0 0 0 0 0 0 0 0 0 0 0 0 0 0 0 0 0 0 0 0 0 0 0 0 0 0 0 0
0 0 0 0 0 0 0 0 0 0 0 0 0 0 0 0 0 0 0 0 0 0 0 0 0 0 0 0 0 0 0 0 0 0 0 0 0 0 0 0 0 0 0 0
0 0 0 0 0 0 0 0 0 0 0 0 0 0 0 0 0 0 0 0 0 0 0 0 0 0 0 0 0 0 0 0 0 0 0 0 0 0 0 0 0 0 0 0
0 0 0 0 0 0 0 0 0 0 0 0 0 0 0 0 0 0 0 0 0 0 0 0 0 0 0 0 0 0 0 0 0 0 0 0 0 0 0 0 0 0 0 0
0 0 0 0 0 0 0 0 0 0 0 0 0 0 0 0 0 0 0 0 0 0 0 0 0 0 0 0 0 0 0 0 0 0 0 0 0 0 0 0 0 0 0 0
0 0 0 0 0 0 0 0 0 0 0 0 0 0 0 0 0 0 0 0 0 0 0 0 0 0 0 0 0 0 0 0 0 0 0 0 0 0 0 0 0 0 0 0
0 0 0 0 0 0 0 0 0 0 0 0 0 0 0 0 0 0 0 0 0 0 0 0 0 0 0 0 0 0 0 0 0 0 0 0 0 0 0 0 0 0 0 0
0 0 0 0 0 0 0 0 0 0 0 0 0 0 0 0 0 0 0 0 0 0 0 0 0 0 0 0 0 0 0 0 0 0 0 0 0 0 0 0 0 0 0 0
0 0 0 0 0 0 0 0 0 0 0 0 0 0 0 0 0 0 0 0 0 0 0 0 0 0 0 0 0 0 0 0 0 0 0 0 0 0 0 0 0 0 0 0
0 0 0 0 0 0 0 0 0 0 0 0 0 0 0 0 0 0 0 0 0 0 0 0 0 0 0 0 0 0 0 0 0 0 0 0 0 0 0 0 0 0 0 0
Wind_Speed
1 2 7 9 9 5 3 5 7 7 3 3 8 11 11 7 5 7 7 7 7 7 6 4 5 5 4 4 4 5 5 4 4 3 2 2 2 1 1 1 2 3 3 3
1 8 9 4 4 4 5 7 8 7 3 4 6 11 10 8 8 8 9 8 7 5 3 3 4 4 5 6 5 5 5 5 5 4 3 2 2 2 2 1 2 2 3 3
9 6 4 4 4 6 8 9 8 6 4 4 5 9 7 6 5 5 5 6 6 6 6 5 5 5 5 5 6 6 6 5 5 4 3 2 2 1 1 1 1 2 3 3
7 6 3 4 6 7 9 7 7 6 4 4 2 7 7 5 5 5 5 5 5 5 5 4 5 5 6 6 5 5 6 5 5 5 5 5 3 3 2 2 2 1 2 3
6 4 5 7 8 7 6 2 4 5 5 4 3 6 9 2 6 7 6 5 6 5 5 4 5 6 6 5 5 5 5 5 5 5 6 5 3 2 1 1 2 2 1 2
6 4 5 5 3 5 3 1 1 0 2 7 8 7 9 5 7 5 5 5 5 4 4 3 3 3 3 3 4 4 5 5 5 5 5 5 5 4 3 2 2 2 1 1
5 4 3 1 1 1 3 3 1 1 3 8 5 6 10 6 6 6 6 5 4 3 3 3 3 3 3 4 4 4 6 5 5 5 5 5 5 5 5 4 4 3 2 1
3 6 3 1 3 4 6 6 6 5 5 4 2 8 8 5 4 3 4 3 3 3 3 3 3 3 3 4 4 4 5 5 5 5 5 4 4 3 3 3 3 3 3 3
3 6 3 3 3 5 5 6 4 3 1 3 6 6 7 2 2 0 1 1 2 2 2 1 1 2 3 3 4 4 5 5 5 5 4 4 4 4 3 3 3 2 2 2
2 6 5 3 0 1 3 4 3 4 4 5 5 5 5 3 3 2 1 2 2 1 0 0 0 1 2 3 2 2 3 4 4 4 4 4 4 4 3 3 3 2 2 2
2 3 5 2 3 4 2 3 2 3 3 4 4 6 3 4 3 2 2 2 1 0 0 0 0 0 1 2 3 3 3 3 3 3 3 3 3 3 3 2 3 3 2 3
2 1 4 6 4 3 4 4 4 4 4 3 3 7 2 1 0 0 1 1 1 1 1 1 1 2 2 1 1 2 3 3 3 3 3 3 3 3 3 2 2 2 3 2
2 1 3 4 2 2 1 2 3 2 1 3 4 7 2 3 4 3 2 2 2 2 2 2 3 2 1 1 1 1 2 2 2 3 3 3 2 3 3 2 2 2 3 2
2 2 5 6 5 3 5 5 3 3 3 5 7 7 5 4 4 4 4 3 2 2 2 2 2 2 2 1 0 1 1 2 2 3 3 3 2 2 2 2 2 2 3 3
1 3 5 8 8 6 7 8 7 7 7 7 7 6 6 3 2 2 2 2 3 2 3 3 2 1 2 2 1 0 0 1 2 3 3 2 2 2 2 2 2 3 3 2
1 3 3 6 6 5 7 7 7 8 6 6 7 8 4 2 1 2 2 2 1 1 2 2 3 2 2 1 1 1 0 1 2 3 2 2 2 3 2 2 3 3 3 2
2 2 2 5 5 3 5 5 4 2 3 4 7 6 2 2 2 2 2 2 1 2 2 2 2 2 2 1 1 1 1 1 2 2 2 2 3 3 2 3 3 3 3 3
3 2 2 3 2 3 4 2 2 1 3 1 2 4 2 2 3 3 1 1 1 2 2 2 2 2 2 1 1 0 1 1 2 2 2 2 2 3 3 3 3 2 2 2
4 3 2 1 2 4 4 5 4 2 4 4 3 5 4 3 3 4 3 2 2 3 2 2 2 2 2 1 1 1 1 1 1 1 1 2 3 3 3 3 2 2 2 2
2 2 1 1 0 2 5 8 7 1 3 6 5 5 5 4 3 4 5 4 4 3 2 2 2 2 2 2 1 2 1 1 1 1 1 1 2 3 3 2 2 1 2 2
3 2 0 1 1 3 6 9 5 3 5 8 6 5 4 2 3 4 4 4 3 3 3 2 2 2 2 2 2 2 1 0 1 1 2 2 2 2 3 2 1 2 2 2
0 1 1 0 1 5 7 5 3 3 5 6 6 5 4 4 4 4 4 4 4 4 4 3 3 3 3 2 2 2 1 1 1 2 2 2 2 2 2 3 2 2 2 2
1 1 1 2 2 3 3 3 4 4 5 6 6 6 4 4 4 4 4 4 4 4 4 3 3 3 4 3 2 1 1 1 2 2 2 2 2 2 2 2 2 1 1 1
3 3 1 2 4 4 5 5 6 6 5 6 6 5 4 4 4 4 4 4 4 4 4 4 4 4 4 4 3 2 1 2 2 2 2 2 2 2 2 1 1 1 1 1
3 3 2 3 5 6 6 6 7 7 6 7 7 6 5 5 5 4 4 4 4 4 4 3 3 3 3 4 3 3 2 2 2 2 1 1 1 1 1 0 0 1 2 2
3 2 1 3 4 4 6 7 7 7 7 6 6 7 7 5 5 5 4 4 3 3 4 4 4 4 3 4 3 3 3 2 2 1 1 1 0 0 0 0 1 2 2 3
Wind_Direction
163 163 215 216 212 226 217 230 252 258 250 228 246 260 266 258 246 245 241 234 232 234 232 203 188 183 174 165 168 171 164 163 153 149 152 158 175 185 184 188 169 160 159 159
125 236 236 216 204 232 246 258 263 277 255 240 267 270 266 248 239 231 228 228 229 230 225 202 186 180 179 176 179 177 177 172 171 173 167 163 163 178 183 179 162 165 164 165
212 236 211 194 205 220 237 235 245 258 307 274 286 285 257 250 236 232 225 221 222 217 216 206 194 194 186 186 186 185 184 178 175 165 140 106 94 80 112 170 177 180 169 167
239 250 222 212 221 207 247 233 235 244 255 270 229 281 271 243 252 238 231 222 226 227 218 205 193 192 196 197 190 183 180 176 173 164 161 159 167 180 200 192 178 165 172 174
242 229 216 223 228 200 230 216 219 231 224 263 229 248 276 242 249 246 231 221 224 221 208 205 198 194 195 191 186 182 174 174 169 166 168 168 173 177 161 152 151 154 175 176
253 247 217 222 224 200 193 90 22 216 170 249 220 208 270 223 223 230 225 219 220 214 202 202 197 176 177 175 174 170 169 172 168 167 166 169 170 167 159 162 167 173 188 199
292 270 255 187 120 142 147 127 17 297 230 243 190 203 249 242 223 214 221 224 217 205 191 189 185 181 176 173 172 172 170 171 170 170 170 176 178 175 180 181 180 179 186 209
265 274 244 220 200 197 200 176 183 212 229 270 218 227 250 259 242 221 211 202 195 199 197 195 196 190 186 181 174 175 176 173 171 172 174 174 174 174 186 185 182 186 196 203
249 267 291 270 253 171 180 205 190 160 251 261 252 270 297 306 313 244 195 163 197 215 212 201 198 185 184 180 180 180 177 174 176 175 170 168 172 173 176 180 177 177 181 180
253 278 284 283 295 228 189 165 140 176 204 250 268 255 249 277 270 239 204 216 247 238 26 57 159 189 185 173 160 157 160 169 172 169 173 171 173 173 167 164 168 168 174 168
288 263 298 306 212 216 161 178 179 191 201 198 255 266 231 228 232 223 224 218 216 213 315 351 345 66 143 132 137 143 144 138 147 160 163 157 167 162 153 161 175 168 159 162
276 231 268 258 254 229 192 198 172 193 231 205 227 269 310 302 309 118 311 346 38 50 41 45 46 58 63 94 136 147 150 147 149 142 143 154 156 154 157 164 174 163 155 158
280 266 316 320 332 12 238 218 202 207 197 198 210 260 341 24 24 19 22 18 29 42 45 46 48 46 38 57 103 138 136 138 132 130 130 128 140 154 161 166 165 154 145 145
294 223 217 238 262 273 277 273 234 183 214 236 233 259 303 349 360 360 5 13 25 31 33 33 41 35 15 14 64 119 132 133 136 134 137 143 152 157 151 143 139 144 142 148
34 257 254 267 277 272 267 267 248 227 226 231 254 257 279 315 320 333 2 13 17 20 18 9 2 12 19 11 6 36 123 136 141 142 148 157 149 140 135 128 126 122 123 130
348 261 279 284 278 272 284 284 253 246 252 252 269 278 299 312 356 4 354 354 336 344 348 348 346 352 1 354 333 318 248 181 149 153 158 145 133 131 130 128 127 125 119 117
252 236 270 276 292 319 301 297 267 249 262 231 246 262 323 341 329 298 289 295 289 309 328 333 322 312 307 303 299 265 245 176 154 157 152 148 139 135 140 136 128 132 131 122
219 229 238 273 328 248 259 329 321 288 332 316 283 299 300 286 294 304 317 300 306 308 306 311 318 324 321 320 328 314 147 147 150 144 142 147 140 138 138 133 138 136 129 133
211 193 224 242 248 284 319 344 339 303 321 347 322 324 332 343 4 351 359 8 324 304 302 298 309 324 333 337 357 58 96 116 127 148 155 160 150 140 136 139 142 131 128 126
35 102 147 266 237 282 307 320 319 334 331 355 348 332 333 358 350 308 338 350 345 343 350 358 10 13 8 352 42 83 83 97 169 200 172 155 144 141 143 145 136 110 124 132
1 8 351 272 265 280 315 326 354 56 311 332 337 338 343 327 283 299 331 345 357 358 358 21 43 31 9 14 64 72 66 10 304 72 103 99 104 126 133 126 118 122 114 114
263 321 306 322 293 288 331 360 22 308 323 340 341 341 341 331 334 345 354 354 2 7 14 32 41 22 10 26 75 76 40 353 47 80 88 89 84 100 112 112 106 113 126 129
256 238 237 203 230 297 329 337 327 340 340 339 340 337 343 347 349 351 354 359 4 8 17 29 41 27 14 14 59 90 5 46 71 78 75 75 75 79 103 119 124 123 135 151
325 344 334 301 299 321 337 344 352 353 345 338 343 344 354 359 354 357 359 4 8 7 16 27 39 33 13 6 25 45 46 64 77 80 70 69 79 71 73 93 124 145 168 178
313 334 336 301 307 327 346 351 342 344 350 356 357 358 359 4 1 2 5 7 10 8 11 23 32 28 11 9 23 28 38 64 67 67 69 73 72 87 79 55 193 204 213 214
336 311 288 282 306 307 312 326 337 343 345 350 355 357 359 7 6 6 7 6 10 12 14 18 20 23 17 19 23 18 23 51 68 64 62 74 79 84 100 30 341 319 287 278